User: anonymous   Login
Location: Sherrills_Ford_Terrell
(35.6000°N, 80.9830°W)
Time: 07:21:30
(UTC-05:00)
Language:

CZ-4B R/B - Orbit

View from above orbital plane
View from above orbital plane
View from above satellite
View from above satellite

Ground track
Ground track

The orbit data is extracted from the following two-line orbital elements,

1 29093U 06015B   16038.80900262  .00007143  00000-0  19577-3 0  9997
2 29093  97.4852 133.9988 0070698 294.2770  65.1099 15.35086466541400
Epoch (UTC): 07 February 2016 19:24:57
Eccentricity: 0.0070698
inclination: 97.4852°
perigee height: 412 km
apogee height: 509 km
right ascension of ascending node: 133.9988°
argument of perigee: 294.2770°
revolutions per day: 15.35086466
mean anomaly at epoch: 65.1099°
orbit number at epoch: 54140

The dashed part of the orbit path shows where the satellite is in the earth's shadow,  

DLR